When you browse on this site, cookies collect data to enhance your experience and personalize the content and advertising you see.
Visit our Privacy Policy to learn more. By continuing to use the site, you agree to this use of cookies and data.
  • In Romania
  • List of Countries
  • For 7 days
  • Water Temperature
  • Satellite Maps
  • Weather Map
  • Weather Widgets
  • user-avatar
    Login

    Hourly Weather Ascheffel

    Today, 17 February, Sunday

    Time Temperature Precipitation Wind Pressure Humidity
    00:00 +5°C° 0 mm 4 mps 764 mmHg 96%
    01:00 +7°C° 0 mm 3 mps 765 mmHg 96%
    02:00 +7°C° 0 mm 3 mps 765 mmHg 96%
    03:00 +7°C° 0 mm 3 mps 765 mmHg 96%
    04:00 +7°C° 0 mm 3 mps 764 mmHg 96%
    05:00 +7°C° 0 mm 3 mps 764 mmHg 96%
    06:00 +6°C° 0 mm 2 mps 764 mmHg 96%
    07:00 +6°C° 0 mm 2 mps 764 mmHg 97%
    08:00 +7°C° 0 mm 2 mps 764 mmHg 94%
    09:00 +7°C° 0 mm 3 mps 764 mmHg 91%
    10:00 +8°C° 0 mm 3 mps 764 mmHg 88%
    11:00 +9°C° 0 mm 3 mps 764 mmHg 83%
    12:00 +10°C° 0 mm 3 mps 764 mmHg 77%
    13:00 +11°C° 0 mm 3 mps 764 mmHg 71%
    14:00 +11°C° 0 mm 3 mps 763 mmHg 72%
    15:00 +12°C° 0 mm 2 mps 763 mmHg 72%
    16:00 +12°C° 0 mm 2 mps 763 mmHg 72%
    17:00 +10°C° 0 mm 2 mps 762 mmHg 77%
    18:00 +8°C° 0 mm 3 mps 762 mmHg 82%
    19:00 +7°C° 0 mm 3 mps 762 mmHg 87%
    20:00 +7°C° 0 mm 3 mps 762 mmHg 87%
    21:00 +5°C° 0 mm 3 mps 762 mmHg 87%
    22:00 +5°C° 0 mm 3 mps 762 mmHg 87%
    23:00 +4°C° 0 mm 3 mps 761 mmHg 87%

    Tomorrow, 18 February, Monday

    Time Temperature Precipitation Wind Pressure Humidity
    00:00 +4°C° 0 mm 3 mps 761 mmHg 88%
    01:00 +4°C° 0 mm 3 mps 761 mmHg 89%
    02:00 +4°C° 0 mm 3 mps 761 mmHg 90%
    03:00 +3°C° 0 mm 3 mps 761 mmHg 91%
    04:00 +3°C° 0 mm 3 mps 761 mmHg 92%
    05:00 +3°C° 0 mm 3 mps 761 mmHg 92%
    06:00 +3°C° 0 mm 3 mps 761 mmHg 93%
    07:00 +2°C° 0 mm 3 mps 761 mmHg 93%
    08:00 +3°C° 0 mm 3 mps 761 mmHg 90%
    09:00 +5°C° 0 mm 3 mps 761 mmHg 86%
    10:00 +6°C° 0 mm 4 mps 761 mmHg 82%
    11:00 +7°C° 0 mm 4 mps 761 mmHg 79%
    12:00 +8°C° 0 mm 4 mps 760 mmHg 75%
    13:00 +10°C° 0 mm 4 mps 760 mmHg 71%
    14:00 +10°C° 0 mm 4 mps 760 mmHg 72%
    15:00 +10°C° 0 mm 3 mps 760 mmHg 73%
    16:00 +10°C° 0 mm 3 mps 759 mmHg 73%
    17:00 +9°C° 0 mm 3 mps 759 mmHg 79%
    18:00 +8°C° 0 mm 3 mps 759 mmHg 85%
    19:00 +5°C° 0 mm 3 mps 759 mmHg 91%
    20:00 +5°C° 0 mm 3 mps 758 mmHg 92%
    21:00 +5°C° 0 mm 3 mps 758 mmHg 92%
    22:00 +4°C° 0 mm 3 mps 758 mmHg 93%
    23:00 +4°C° 0 mm 3 mps 758 mmHg 93%

    Day after tomorrow, 19 February, Tuesday

    Time Temperature Precipitation Wind Pressure Humidity
    00:00 +4°C° 0 mm 3 mps 758 mmHg 94%
    01:00 +4°C° 0 mm 3 mps 757 mmHg 94%
    02:00 +4°C° 0.1 mm 3 mps 757 mmHg 94%
    03:00 +5°C° 0.1 mm 4 mps 757 mmHg 93%
    04:00 +5°C° 0.1 mm 4 mps 756 mmHg 93%
    05:00 +5°C° 0.4 mm 4 mps 756 mmHg 93%
    06:00 +5°C° 0.4 mm 5 mps 756 mmHg 94%
    07:00 +5°C° 0.4 mm 5 mps 756 mmHg 94%
    08:00 +4°C° 0 mm 6 mps 757 mmHg 91%
    09:00 +5°C° 0 mm 6 mps 757 mmHg 89%
    10:00 +5°C° 0 mm 7 mps 757 mmHg 86%
    11:00 +5°C° 0 mm 7 mps 757 mmHg 85%
    12:00 +5°C° 0 mm 7 mps 758 mmHg 85%
    13:00 +5°C° 0 mm 7 mps 758 mmHg 85%
    14:00 +5°C° 0.1 mm 7 mps 758 mmHg 85%
    15:00 +5°C° 0.1 mm 7 mps 758 mmHg 86%
    16:00 +5°C° 0.1 mm 6 mps 758 mmHg 86%
    17:00 +5°C° 0 mm 6 mps 758 mmHg 87%
    18:00 +4°C° 0 mm 6 mps 759 mmHg 88%
    19:00 +5°C° 0 mm 5 mps 759 mmHg 90%
    20:00 +5°C° 0 mm 5 mps 759 mmHg 91%
    21:00 +3°C° 0 mm 5 mps 759 mmHg 92%
    22:00 +3°C° 0 mm 5 mps 760 mmHg 93%
    23:00 +2°C° 0 mm 5 mps 760 mmHg 93%

    20 February, Wednesday

    Time Temperature Precipitation Wind Pressure Humidity
    00:00 +2°C° 0 mm 5 mps 760 mmHg 94%
    01:00 +2°C° 0 mm 5 mps 760 mmHg 94%
    02:00 +2°C° 0 mm 5 mps 760 mmHg 94%
    03:00 +2°C° 0 mm 5 mps 760 mmHg 94%
    04:00 +2°C° 0 mm 5 mps 760 mmHg 94%
    05:00 +3°C° 0 mm 4 mps 760 mmHg 94%
    06:00 +3°C° 0 mm 4 mps 761 mmHg 93%
    07:00 +3°C° 0 mm 4 mps 761 mmHg 92%
    08:00 +4°C° 0 mm 4 mps 761 mmHg 90%
    09:00 +5°C° 0 mm 5 mps 761 mmHg 88%
    10:00 +5°C° 0 mm 5 mps 762 mmHg 85%
    11:00 +6°C° 0 mm 5 mps 762 mmHg 83%
    12:00 +7°C° 0 mm 6 mps 762 mmHg 80%
    13:00 +8°C° 0 mm 6 mps 762 mmHg 77%
    14:00 +7°C° 0 mm 6 mps 763 mmHg 79%
    15:00 +7°C° 0 mm 6 mps 763 mmHg 80%
    16:00 +7°C° 0 mm 6 mps 763 mmHg 81%
    17:00 +6°C° 0.1 mm 5 mps 763 mmHg 83%
    18:00 +6°C° 0.1 mm 4 mps 763 mmHg 85%
    19:00 +5°C° 0.1 mm 4 mps 763 mmHg 87%
    20:00 +5°C° 0.1 mm 4 mps 763 mmHg 88%
    21:00 +5°C° 0.1 mm 4 mps 763 mmHg 88%
    22:00 +5°C° 0.1 mm 4 mps 764 mmHg 88%
    23:00 +5°C° 0.1 mm 4 mps 764 mmHg 88%

    21 February, Thursday

    Time Temperature Precipitation Wind Pressure Humidity
    00:00 +5°C° 0.1 mm 4 mps 764 mmHg 87%
    01:00 +5°C° 0.1 mm 4 mps 764 mmHg 87%
    02:00 +5°C° 0 mm 4 mps 763 mmHg 87%
    03:00 +5°C° 0 mm 4 mps 763 mmHg 87%
    04:00 +5°C° 0 mm 5 mps 763 mmHg 87%
    05:00 +5°C° 0.1 mm 5 mps 763 mmHg 89%
    06:00 +5°C° 0.1 mm 5 mps 763 mmHg 91%
    07:00 +5°C° 0.1 mm 5 mps 763 mmHg 93%
    08:00 +5°C° 0.1 mm 5 mps 763 mmHg 93%
    09:00 +6°C° 0.1 mm 5 mps 764 mmHg 92%
    10:00 +6°C° 0.1 mm 5 mps 764 mmHg 92%
    11:00 +7°C° 0 mm 4 mps 764 mmHg 90%
    12:00 +7°C° 0 mm 4 mps 764 mmHg 89%
    13:00 +7°C° 0 mm 4 mps 765 mmHg 87%
    14:00 +8°C° 0 mm 4 mps 765 mmHg 85%
    15:00 +9°C° 0 mm 3 mps 765 mmHg 84%
    16:00 +9°C° 0 mm 3 mps 765 mmHg 82%
    17:00 +8°C° 0 mm 3 mps 765 mmHg 87%
    18:00 +5°C° 0 mm 3 mps 766 mmHg 91%
    19:00 +5°C° 0 mm 2 mps 766 mmHg 95%
    20:00 +5°C° 0 mm 2 mps 767 mmHg 95%
    21:00 +4°C° 0 mm 2 mps 767 mmHg 96%
    22:00 +4°C° 0 mm 2 mps 768 mmHg 96%
    23:00 +4°C° 0 mm 2 mps 768 mmHg 96%

    22 February, Friday

    Time Temperature Precipitation Wind Pressure Humidity
    00:00 +4°C° 0 mm 2 mps 769 mmHg 97%
    01:00 +4°C° 0 mm 2 mps 769 mmHg 97%
    02:00 +4°C° 0 mm 2 mps 769 mmHg 97%
    03:00 +4°C° 0 mm 2 mps 770 mmHg 97%
    04:00 +4°C° 0 mm 2 mps 770 mmHg 97%
    05:00 +4°C° 0 mm 2 mps 770 mmHg 97%
    06:00 +4°C° 0 mm 2 mps 771 mmHg 97%
    07:00 +6°C° 0 mm 1 mps 771 mmHg 97%
    08:00 +6°C° 0 mm 1 mps 772 mmHg 94%
    09:00 +7°C° 0 mm 1 mps 773 mmHg 92%
    10:00 +7°C° 0 mm 1 mps 773 mmHg 90%
    11:00 +8°C° 0 mm 1 mps 774 mmHg 86%
    12:00 +7°C° 0 mm 0 mps 774 mmHg 83%
    13:00 +8°C° 0 mm 0 mps 774 mmHg 79%
    14:00 +8°C° 0 mm 0 mps 775 mmHg 79%
    15:00 +8°C° 0 mm 0 mps 775 mmHg 79%
    16:00 +9°C° 0 mm 1 mps 775 mmHg 79%
    17:00 +9°C° 0 mm 1 mps 776 mmHg 82%
    18:00 +8°C° 0 mm 1 mps 776 mmHg 84%
    19:00 +8°C° 0 mm 1 mps 777 mmHg 87%
    20:00 +7°C° 0 mm 1 mps 777 mmHg 88%
    21:00 +7°C° 0 mm 1 mps 777 mmHg 89%
    22:00 +7°C° 0 mm 1 mps 778 mmHg 90%
    23:00 +7°C° 0 mm 1 mps 778 mmHg 91%
    Show more